[[{"header":{"parameterUnit":"m.s-1","parameterCategory":1,"la1":30.2991,"la2":30.254,"lo1":-89.0895,"lo2":-89.0444,"dy":0.0017,"dx":0.0017,"nx":28,"ny":28,"refTime":"2023-10-29T21:00:00:Z","depth":0,"parameterNumber":2,"parameterNumberName":"U-component_of_WINDS"},"data":[0,0,0,0,0,0,0,0,0,0,0,0,0,0,0,0,0,0,0,0,0,0,0,0,0,0,0,0,0,0,0,0,0,0,0,0,0,0,0,0,0,0,0,0,0,0,0,0,0,0,0,0,0,0,0,0,0,0,0.97,0.97,0,0.9728,0.9729,0.9729,0.9744,0.9744,0.9744,0.9744,0.9773,0.9774,0.9774,0,0,0,0,0,0,0,0,0,0,0,0,0,0.9658,0.9659,0.97,0.97,0.97,0.9728,0.9729,0.9729,0.9744,0.9744,0.9744,0.9744,0.9773,0.9774,0.9775,0,0,0,0,0,0,0,0,0,0,0,0,0,0.9681,0.9659,0.9699,0.9711,0.9712,0.9728,0.9729,0.9729,0.9744,0.9744,0.9744,0.9744,0.9772,0.9774,0.9775,0.9782,0,0,0.9778,0.9779,0,0,0,0,0,0,0,0,0.9679,0.9682,0.9709,0.971,0.9712,0.9732,0.9725,0.9747,0.9744,0.9732,0.9744,0.9744,0.9759,0.9762,0.9767,0.9783,0.9784,0.9778,0.9779,0.9779,0.978,0,0,0,0,0,0,0,0.9678,0.9681,0.9711,0.9709,0.9711,0.9715,0.9718,0.9729,0.9745,0.9733,0.9734,0.9737,0.976,0.9766,0.9768,0.9785,0.9778,0.9779,0.978,0.978,0.9809,0.981,0,0,0,0,0,0,0.9674,0.9679,0.971,0.9712,0.9695,0.9716,0.9719,0.9726,0.9745,0.9748,0.9737,0.9738,0.9764,0.9766,0.9769,0.9779,0.9779,0.9781,0.9781,0.9809,0.9809,0.981,0,0,0,0,0,0,0.9673,0.9677,0.9709,0.9696,0.97,0.9716,0.9724,0.9726,0.9732,0.9748,0.9751,0.974,0.9764,0.9767,0.9779,0.978,0.9781,0.9782,0.9809,0.9809,0.981,0.9799,0,0,0,0,0,0,0.9672,0.9676,0.9679,0.9696,0.9701,0.9718,0.9724,0.9727,0.9734,0.9735,0.9752,0.9754,0.9764,0.9777,0.978,0.9782,0.9783,0.9809,0.9809,0.9809,0.9799,0.9799,0.9798,0,0,0,0,0,0.967,0.9674,0.9679,0.9682,0.9704,0.9718,0.9721,0.9732,0.9734,0.9737,0.9748,0.9754,0.978,0.9778,0.9781,0.9784,0.9809,0.9809,0.9809,0.98,0.9799,0.9798,0,0,0,0,0,0,0.9656,0.9676,0.9682,0.9691,0.9703,0.972,0.9724,0.9731,0.9742,0.9742,0.9756,0.976,0.977,0.9778,0.9776,0.9793,0.9795,0.9796,0.9787,0.9786,0.9786,0.9783,0.9784,0,0,0,0,0,0.9654,0.9663,0.9681,0.9687,0.9693,0.9707,0.9714,0.9722,0.9734,0.9739,0.975,0.9762,0.9774,0.978,0.9791,0.9801,0.9805,0.9805,0.9804,0.9804,0.9804,0.9811,0.9811,0.981,0.981,0.981,0,0,0.965,0.9662,0.9667,0.9685,0.9694,0.9704,0.9711,0.9721,0.9728,0.974,0.9752,0.9761,0.9776,0.9786,0.9792,0.9794,0.9806,0.9804,0.9803,0.9804,0.9811,0.9812,0.9812,0.981,0.981,0.981,0,0,0.9647,0.9657,0.9664,0.9674,0.9689,0.9699,0.9701,0.9718,0.9725,0.9737,0.9747,0.9756,0.9774,0.9785,0.9792,0.9796,0.9802,0.9799,0.9796,0.9803,0.9803,0.9803,0.9805,0.9806,0.98,0.98,0.9799,0,0.9639,0.9654,0.9667,0.9676,0.9684,0.9696,0.9704,0.9714,0.9731,0.9737,0.9739,0.9763,0.9774,0.9788,0.9789,0.9795,0.9798,0.9797,0.9802,0.9802,0.9803,0.9805,0.9805,0.9799,0.9799,0.9799,0.9799,0,0.9644,0.9655,0.9659,0.9676,0.9685,0.9693,0.9708,0.9716,0.9723,0.9733,0.9747,0.976,0.9774,0.9779,0.9786,0.9794,0.9795,0.9799,0.9802,0.9802,0.9804,0.9805,0.9798,0.9799,0.9799,0.9799,0,0,0.9631,0.9658,0.9659,0.9668,0.9686,0.9695,0.9705,0.9719,0.9726,0.9738,0.9747,0.9764,0.9768,0.9777,0.9786,0.9792,0.9795,0.9796,0.9796,0.9795,0.9806,0.9803,0.9803,0.98,0.98,0.98,0.9805,0,0.9631,0.9649,0.9662,0.9675,0.9685,0.9698,0.9707,0.972,0.973,0.9741,0.9752,0.9764,0.9769,0.9774,0.9781,0.9793,0.9797,0.9793,0.9809,0.9809,0.9804,0.9804,0.98,0.9804,0.9806,0.9806,0.9806,0,0.9633,0.9646,0.966,0.9679,0.9684,0.9692,0.9707,0.9717,0.9732,0.974,0.975,0.976,0.9772,0.9774,0.9791,0.9788,0.9796,0.9803,0.9804,0.9805,0.9807,0.9806,0.9806,0.9806,0.9808,0.9808,0.9808,0,0.9623,0.9644,0.9655,0.9663,0.9685,0.969,0.97,0.9715,0.9724,0.9738,0.9744,0.9758,0.9766,0.9778,0.9792,0.9792,0.9808,0.9811,0.9815,0.9814,0.9817,0.9816,0.9818,0.9822,0.9822,0.9822,0.9822,0,0.9621,0.9629,0.9651,0.9658,0.9669,0.9684,0.9694,0.9705,0.9719,0.9729,0.9741,0.975,0.9768,0.978,0.9791,0.9804,0.9807,0.9814,0.9816,0.9812,0.9812,0.9817,0.9817,0.9822,0.9822,0.9822,0.9822,0,0.9611,0.9626,0.9639,0.966,0.9666,0.9672,0.969,0.9698,0.971,0.9723,0.9727,0.9745,0.976,0.9775,0.9794,0.9802,0.9815,0.9818,0.9809,0.9811,0.9813,0.9813,0.9818,0.982,0.9823,0.9823,0.9823,0,0.9608,0.9615,0.9637,0.9645,0.9655,0.9667,0.9676,0.9692,0.9701,0.972,0.9726,0.9742,0.9755,0.9778,0.9793,0.9809,0.9813,0.9814,0.9816,0.9812,0.9814,0.9813,0.9814,0.9813,0.9813,0.9813,0.9813,0,0.9603,0.9611,0.9623,0.9639,0.965,0.9663,0.9677,0.9683,0.9701,0.9711,0.9727,0.9737,0.9758,0.9774,0.9791,0.9802,0.9811,0.9813,0.9814,0.981,0.9805,0.9808,0.9808,0.9812,0.9812,0.9812,0.9813,0.9813,0.9597,0.9604,0.9621,0.9636,0.9648,0.9661,0.967,0.9683,0.9696,0.9714,0.9723,0.9739,0.9756,0.9781,0.9792,0.9805,0.9807,0.9809,0.981,0.981,0.9809,0.9803,0.9808,0.9808,0.9808,0.9808,0.9808,0,0.9593,0.9605,0.9618,0.9637,0.9648,0.9657,0.9673,0.9682,0.9695,0.9711,0.9724,0.9742,0.9758,0.9776,0.9793,0.98,0.9805,0.9804,0.9803,0.9806,0.9806,0.9803,0.98,0.98,0.98,0.98,0.98,0.98,0.9592,0.9605,0.9614,0.9634,0.9647,0.9662,0.9671,0.9683,0.9696,0.9716,0.9729,0.974,0.9757,0.9776,0.9791,0.9796,0.9802,0.98,0.9806,0.9805,0.9806,0.9806,0.9804,0.9801,0.9801,0.9805,0.9805,0.9805]},{"header":{"parameterUnit":"m.s-1","parameterCategory":1,"la1":30.2991,"la2":30.254,"lo1":-89.0895,"lo2":-89.0444,"dy":0.0017,"dx":0.0017,"nx":28,"ny":28,"refTime":"2023-10-29T21:00:00:Z","depth":0,"parameterNumber":3,"parameterNumberName":"V-component_of_WINDS"},"data":[0,0,0,0,0,0,0,0,0,0,0,0,0,0,0,0,0,0,0,0,0,0,0,0,0,0,0,0,0,0,0,0,0,0,0,0,0,0,0,0,0,0,0,0,0,0,0,0,0,0,0,0,0,0,0,0,0,0,-9.2314,-9.2315,0,-9.2424,-9.2426,-9.2427,-9.2349,-9.2345,-9.2342,-9.2339,-9.2443,-9.2449,-9.2455,0,0,0,0,0,0,0,0,0,0,0,0,0,-9.2028,-9.2034,-9.2314,-9.2315,-9.2317,-9.2424,-9.2426,-9.2427,-9.2349,-9.2345,-9.2341,-9.2337,-9.2441,-9.2448,-9.2455,0,0,0,0,0,0,0,0,0,0,0,0,0,-9.2147,-9.2036,-9.2313,-9.2291,-9.229,-9.2424,-9.2426,-9.2428,-9.235,-9.2345,-9.234,-9.2335,-9.2439,-9.2448,-9.2456,-9.2616,0,0,-9.2484,-9.2488,0,0,0,0,0,0,0,0,-9.214,-9.2157,-9.2293,-9.2293,-9.2292,-9.2368,-9.2363,-9.249,-9.2352,-9.2327,-9.2339,-9.2332,-9.2422,-9.2432,-9.2464,-9.2621,-9.2625,-9.2485,-9.249,-9.2494,-9.2497,0,0,0,0,0,0,0,-9.2132,-9.2152,-9.2357,-9.2295,-9.2294,-9.2273,-9.2284,-9.2387,-9.2402,-9.2329,-9.2324,-9.2338,-9.242,-9.2455,-9.2465,-9.2627,-9.2484,-9.2492,-9.2498,-9.2502,-9.2922,-9.2927,0,0,0,0,0,0,-9.2127,-9.2146,-9.2354,-9.236,-9.2202,-9.2282,-9.2295,-9.2348,-9.2401,-9.2404,-9.2342,-9.2334,-9.2442,-9.2455,-9.2469,-9.266,-9.2494,-9.2502,-9.2508,-9.2916,-9.2923,-9.2929,0,0,0,0,0,0,-9.2121,-9.2146,-9.2349,-9.2252,-9.2276,-9.2293,-9.2354,-9.2353,-9.2388,-9.2411,-9.2412,-9.2376,-9.2439,-9.2456,-9.2581,-9.2663,-9.2506,-9.2515,-9.2909,-9.2918,-9.2926,-9.3044,0,0,0,0,0,0,-9.2113,-9.2145,-9.2207,-9.2254,-9.2282,-9.2462,-9.2359,-9.2359,-9.2405,-9.2395,-9.2443,-9.2445,-9.2436,-9.2568,-9.259,-9.2672,-9.2522,-9.2902,-9.2913,-9.2924,-9.3033,-9.3055,-9.3075,0,0,0,0,0,-9.2103,-9.2233,-9.221,-9.2236,-9.236,-9.2467,-9.2482,-9.2471,-9.2412,-9.2474,-9.2489,-9.2444,-9.2651,-9.2581,-9.2605,-9.2692,-9.2897,-9.291,-9.2923,-9.3023,-9.3051,-9.3074,0,0,0,0,0,0,-9.2191,-9.2239,-9.2214,-9.2363,-9.2412,-9.2453,-9.2531,-9.2501,-9.2565,-9.2552,-9.2533,-9.2545,-9.2676,-9.2696,-9.2618,-9.285,-9.2764,-9.2782,-9.2832,-9.2858,-9.2879,-9.2871,-9.2529,0,0,0,0,0,-9.2229,-9.2314,-9.2349,-9.2477,-9.2504,-9.2514,-9.2559,-9.2547,-9.2596,-9.2615,-9.2639,-9.2685,-9.2761,-9.281,-9.2881,-9.3035,-9.3044,-9.3107,-9.3128,-9.3145,-9.3161,-9.3245,-9.3273,-9.2972,-9.2972,-9.2972,0,0,-9.2305,-9.2342,-9.2396,-9.2496,-9.2533,-9.262,-9.2531,-9.2626,-9.269,-9.2628,-9.2749,-9.2768,-9.2819,-9.296,-9.3023,-9.298,-9.3246,-9.3161,-9.3175,-9.3181,-9.3261,-9.329,-9.3315,-9.2981,-9.2979,-9.2978,0,0,-9.2489,-9.2526,-9.2638,-9.2677,-9.2735,-9.2741,-9.2768,-9.2816,-9.2827,-9.2949,-9.2905,-9.2979,-9.3109,-9.3148,-9.3185,-9.3388,-9.3349,-9.3411,-9.352,-9.3603,-9.3627,-9.3648,-9.3721,-9.3747,-9.3427,-9.3427,-9.3427,0,-9.2576,-9.2708,-9.2698,-9.2798,-9.2844,-9.2796,-9.2909,-9.2946,-9.3023,-9.3054,-9.3006,-9.3171,-9.3201,-9.3351,-9.3402,-9.3432,-9.3462,-9.3405,-9.3625,-9.3646,-9.3665,-9.3734,-9.3762,-9.3434,-9.3433,-9.3433,-9.3432,0,-9.2813,-9.2905,-9.2988,-9.3068,-9.3123,-9.3228,-9.3232,-9.3289,-9.3273,-9.3284,-9.3408,-9.3444,-9.3522,-9.3556,-9.3539,-9.3705,-9.3677,-9.3628,-9.3541,-9.3701,-9.3766,-9.3792,-9.3445,-9.3442,-9.344,-9.3438,0,0,-9.3053,-9.313,-9.316,-9.3197,-9.3259,-9.3328,-9.3432,-9.3512,-9.356,-9.3615,-9.3701,-9.3814,-9.377,-9.3811,-9.3799,-9.3871,-9.4031,-9.3813,-9.3814,-9.3853,-9.4216,-9.4253,-9.4284,-9.4006,-9.4011,-9.4015,-9.4212,0,-9.3242,-9.3426,-9.3421,-9.3591,-9.3676,-9.3634,-9.3724,-9.377,-9.3784,-9.3856,-9.3869,-9.3951,-9.3886,-9.3911,-9.3981,-9.3997,-9.4104,-9.3983,-9.4084,-9.4088,-9.4074,-9.4318,-9.4357,-9.4541,-9.4237,-9.4242,-9.4245,0,-9.3486,-9.3554,-9.3734,-9.3786,-9.3821,-9.3903,-9.3977,-9.4047,-9.4099,-9.4103,-9.4153,-9.4129,-9.4232,-9.4144,-9.4286,-9.4204,-9.4245,-9.426,-9.4266,-9.4275,-9.4176,-9.4334,-9.4599,-9.4627,-9.4284,-9.4281,-9.4278,0,-9.3644,-9.378,-9.3906,-9.3939,-9.4002,-9.406,-9.4089,-9.4136,-9.4185,-9.4249,-9.4281,-9.4354,-9.4395,-9.4452,-9.4448,-9.4384,-9.4593,-9.4503,-9.4598,-9.4599,-9.4643,-9.464,-9.492,-9.467,-9.467,-9.4669,-9.4669,0,-9.3855,-9.3967,-9.3979,-9.4056,-9.418,-9.4173,-9.4295,-9.4317,-9.4361,-9.444,-9.4407,-9.4481,-9.4473,-9.4548,-9.4545,-9.4664,-9.4682,-9.4687,-9.4685,-9.4691,-9.469,-9.4717,-9.4704,-9.4677,-9.4675,-9.4673,-9.4672,0,-9.4053,-9.4065,-9.42,-9.4251,-9.4266,-9.4355,-9.4397,-9.447,-9.4482,-9.4583,-9.4606,-9.4624,-9.4711,-9.4714,-9.4812,-9.4811,-9.4956,-9.4939,-9.4939,-9.4936,-9.5031,-9.5022,-9.5337,-9.5379,-9.5102,-9.5105,-9.5107,0,-9.4187,-9.4273,-9.4334,-9.4387,-9.4421,-9.4505,-9.4557,-9.4553,-9.4607,-9.4675,-9.474,-9.4824,-9.4892,-9.5032,-9.5052,-9.5128,-9.5113,-9.5218,-9.5123,-9.5127,-9.5115,-9.511,-9.5119,-9.5236,-9.5239,-9.5242,-9.5244,0,-9.4423,-9.4426,-9.4503,-9.4584,-9.4648,-9.471,-9.4767,-9.4811,-9.4814,-9.4877,-9.4968,-9.5021,-9.5124,-9.5208,-9.5282,-9.5308,-9.5277,-9.5274,-9.53,-9.5306,-9.5303,-9.5307,-9.499,-9.5266,-9.5264,-9.5262,-9.5261,-9.526,-9.4593,-9.4669,-9.4725,-9.4813,-9.4857,-9.4912,-9.4984,-9.5007,-9.5084,-9.517,-9.5162,-9.5263,-9.5313,-9.5411,-9.5444,-9.5521,-9.5484,-9.5522,-9.5531,-9.5541,-9.5551,-9.5292,-9.5534,-9.5533,-9.5533,-9.5532,-9.5532,0,-9.4829,-9.4864,-9.4945,-9.5029,-9.5098,-9.5067,-9.5129,-9.5188,-9.5279,-9.533,-9.5399,-9.5504,-9.5586,-9.5614,-9.5694,-9.575,-9.5738,-9.5771,-9.5767,-9.5774,-9.5579,-9.5549,-9.578,-9.578,-9.578,-9.578,-9.578,-9.578,-9.496,-9.5086,-9.5097,-9.5244,-9.5277,-9.5379,-9.5418,-9.5469,-9.551,-9.563,-9.57,-9.5719,-9.5761,-9.5844,-9.5918,-9.5924,-9.5954,-9.5994,-9.5994,-9.5812,-9.5787,-9.5763,-9.5735,-9.6001,-9.6001,-9.6182,-9.6184,-9.6185]}]]